Weather History for Fort Benning, GA

Change the Weather History Date:

Wednesday, October 3, 2012

  Actual Average Record
Temperature  
Mean Temperature 66 °F -  
Max Temperature 77 °F 78 °F 89 °F (1999)
Min Temperature 57 °F 57 °F 37 °F (2011)
Cooling Degree Days 1    
Growing Degree Days 16 (Base 50)    
Moisture  
Dew Point 59 °F    
Average Humidity 97    
Maximum Humidity 100    
Minimum Humidity 61    
Precipitation  
Precipitation 0.00 in - - ()
Sea Level Pressure  
Sea Level Pressure 30.06 in    
Wind  
Wind Speed 0 mph (SSE)    
Max Wind Speed 5 mph    
Max Gust Speed -    
Visibility 3 miles    
Events Fog    
Averages and records for this station are not official NWS values.
T = Trace of Precipitation, MM = Missing Value Source: NWS Daily Summary

Daily Weather History Graph

Daily Weather History Graph

Search for Another Location

Airport:

Trip Planner

Search our weather history database for the weather conditions in past years. The results will help you decide how hot, cold, wet, or windy it might be!

Date:

Astronomy

Oct. 03, 2012 Rise Set
Actual Time 7:35 AM EDT 7:21 PM EDT
Civil Twilight 7:11 AM EDT 7:45 PM EDT
Nautical Twilight 6:42 AM EDT 8:14 PM EDT
Astronomical Twilight 6:14 AM EDT 8:42 PM EDT
Moon 9:27 PM EDT (10/3) 10:44 AM EDT (10/3)
Length of Visible Light 12h 34m
Length of Day
11h 45m
Waning Gibbous, 89% of the Moon is Illuminated
Oct 3
Waning Gibbous
Oct 8
Last Quarter
Oct 15
New
Oct 21
First Quarter
Oct 29
Full

Hourly Weather History & Observations

Time (EDT) Temp. Dew Point Humidity Pressure Visibility Wind Dir Wind Speed Gust Speed Precip Events Conditions
12:09 AM 60.8 °F 60.8 °F 100% 30.01 in 4.0 mi Calm Calm - N/A   Mostly Cloudy
12:19 AM 60.8 °F 60.8 °F 100% 30.01 in 3.0 mi Calm Calm - N/A   Overcast
12:20 AM 60.8 °F 60.8 °F 100% 30.01 in 2.5 mi Calm Calm - N/A   Overcast
12:25 AM 60.8 °F 60.8 °F 100% 30.01 in 2.5 mi Calm Calm - N/A   Overcast
12:27 AM 60.8 °F 60.8 °F 100% 30.01 in 3.0 mi Calm Calm - N/A   Mostly Cloudy
12:30 AM 60.8 °F 59.0 °F 94% 30.01 in 4.0 mi Calm Calm - N/A   Mostly Cloudy
12:49 AM 60.8 °F 59.0 °F 94% 30.01 in 2.5 mi Calm Calm - N/A   Partly Cloudy
12:50 AM 60.8 °F 59.0 °F 94% 30.01 in 2.0 mi Calm Calm - N/A   Partly Cloudy
12:51 AM 60.8 °F 59.0 °F 94% 30.01 in 1.5 mi Calm Calm - N/A   Partly Cloudy
12:52 AM 60.8 °F 59.0 °F 94% 30.01 in 1.2 mi Calm Calm - N/A   Partly Cloudy
12:53 AM 60.8 °F 59.0 °F 94% 30.01 in 1.0 mi Calm Calm - N/A   Clear
12:55 AM 59.7 °F 59.4 °F 99% 30.01 in 0.8 mi Calm Calm - N/A   Clear
12:56 AM 59.0 °F 59.0 °F 100% 30.01 in 0.8 mi Calm Calm - N/A   Clear
12:58 AM 59.0 °F 59.0 °F 100% 30.01 in 0.8 mi Calm Calm - N/A   Clear
1:00 AM 59.0 °F 59.0 °F 100% 30.01 in 0.8 mi Calm Calm - N/A   Clear
1:04 AM 59.0 °F 59.0 °F 100% 30.01 in 0.5 mi Calm Calm - N/A Fog Fog
1:12 AM 60.8 °F 59.0 °F 94% 30.01 in 0.2 mi Calm Calm - N/A Fog Fog
1:20 AM 60.8 °F 59.0 °F 94% 30.01 in 0.5 mi Calm Calm - N/A Fog Fog
1:40 AM 59.0 °F 59.0 °F 100% 30.01 in 0.5 mi Calm Calm - N/A Fog Fog
1:48 AM 59.0 °F 59.0 °F 100% 30.01 in 0.2 mi Calm Calm - N/A Fog Fog
1:55 AM 59.2 °F 59.0 °F 99% 30.01 in 0.2 mi Calm Calm - N/A Fog Fog
1:57 AM 59.0 °F 59.0 °F 100% 30.01 in 0.2 mi Calm Calm - N/A Fog Fog
2:06 AM 59.0 °F 59.0 °F 100% 30.01 in 0.5 mi Calm Calm - N/A Fog Fog
2:14 AM 59.0 °F 57.2 °F 94% 30.01 in 0.5 mi Calm Calm - N/A Fog Fog
2:46 AM 59.0 °F 57.2 °F 94% 30.02 in 0.5 mi Calm Calm - N/A Fog Fog
2:47 AM 59.0 °F 57.2 °F 94% 30.02 in 0.8 mi Calm Calm - N/A   Partly Cloudy
2:48 AM 59.0 °F 57.2 °F 94% 30.02 in 0.8 mi Calm Calm - N/A   Partly Cloudy
2:51 AM 57.2 °F 57.2 °F 100% 30.02 in 1.0 mi Calm Calm - N/A   Partly Cloudy
2:53 AM 57.2 °F 57.2 °F 100% 30.02 in 1.2 mi Calm Calm - N/A   Partly Cloudy
2:54 AM 57.2 °F 57.2 °F 100% 30.02 in 1.5 mi Calm Calm - N/A   Partly Cloudy
2:55 AM 57.7 °F 57.4 °F 99% 30.02 in 1.8 mi Calm Calm - N/A   Partly Cloudy
2:56 AM 57.2 °F 57.2 °F 100% 30.02 in 2.0 mi Calm Calm - N/A   Partly Cloudy
3:04 AM 57.2 °F 57.2 °F 100% 30.02 in 2.5 mi Calm Calm - N/A   Partly Cloudy
3:07 AM 57.2 °F 57.2 °F 100% 30.02 in 2.5 mi Calm Calm - N/A   Partly Cloudy
3:08 AM 57.2 °F 57.2 °F 100% 30.02 in 3.0 mi Calm Calm - N/A   Partly Cloudy
3:27 AM 57.2 °F 57.2 °F 100% 30.02 in 4.0 mi Calm Calm - N/A   Mostly Cloudy
3:30 AM 57.2 °F 57.2 °F 100% 30.02 in 3.0 mi Calm Calm - N/A   Mostly Cloudy
3:36 AM 57.2 °F 57.2 °F 100% 30.02 in 4.0 mi Calm Calm - N/A   Mostly Cloudy
3:52 AM 57.2 °F 57.2 °F 100% 30.02 in 6.0 mi Calm Calm - N/A   Partly Cloudy
3:55 AM 58.1 °F 57.7 °F 99% 30.02 in 7.0 mi Calm Calm - N/A   Partly Cloudy
4:21 AM 57.2 °F 57.2 °F 100% 30.02 in 2.5 mi Calm Calm - N/A   Clear
4:23 AM 57.2 °F 57.2 °F 100% 30.02 in 1.8 mi Calm Calm - N/A   Clear
4:24 AM 57.2 °F 57.2 °F 100% 30.02 in 1.5 mi Calm Calm - N/A   Clear
4:26 AM 57.2 °F 57.2 °F 100% 30.02 in 1.2 mi Calm Calm - N/A   Clear
4:27 AM 57.2 °F 57.2 °F 100% 30.02 in 1.2 mi Calm Calm - N/A   Clear
4:28 AM 57.2 °F 57.2 °F 100% 30.02 in 1.2 mi Calm Calm - N/A   Clear
4:37 AM 57.2 °F 57.2 °F 100% 30.02 in 1.2 mi SSW 3.5 mph - N/A   Clear
4:38 AM 57.2 °F 57.2 °F 100% 30.02 in 1.5 mi Calm Calm - N/A   Clear
4:39 AM 57.2 °F 57.2 °F 100% 30.02 in 1.8 mi Calm Calm - N/A   Clear
4:40 AM 57.2 °F 57.2 °F 100% 30.02 in 2.0 mi Calm Calm - N/A   Clear
4:42 AM 57.2 °F 57.2 °F 100% 30.02 in 3.0 mi Calm Calm - N/A   Clear
4:48 AM 57.2 °F 57.2 °F 100% 30.02 in 2.5 mi Calm Calm - N/A   Partly Cloudy
4:50 AM 57.2 °F 57.2 °F 100% 30.02 in 1.8 mi Calm Calm - N/A   Partly Cloudy
4:51 AM 57.2 °F 57.2 °F 100% 30.03 in 1.5 mi SE 3.5 mph - N/A   Partly Cloudy
4:52 AM 57.2 °F 57.2 °F 100% 30.03 in 1.2 mi SE 3.5 mph - N/A   Scattered Clouds
4:53 AM 59.0 °F 57.2 °F 94% 30.03 in 1.0 mi SE 3.5 mph - N/A   Scattered Clouds
4:54 AM 59.0 °F 57.2 °F 94% 30.03 in 1.0 mi SE 3.5 mph - N/A   Scattered Clouds
4:55 AM 58.3 °F 57.9 °F 99% 30.03 in 1.0 mi SE 3.5 mph - N/A   Scattered Clouds
4:57 AM 59.0 °F 59.0 °F 100% 30.03 in 1.0 mi SE 3.5 mph - N/A   Mostly Cloudy
4:58 AM 59.0 °F 59.0 °F 100% 30.03 in 1.2 mi SE 3.5 mph - N/A   Mostly Cloudy
4:59 AM 59.0 °F 59.0 °F 100% 30.03 in 1.2 mi SE 3.5 mph - N/A   Mostly Cloudy
5:00 AM 59.0 °F 59.0 °F 100% 30.03 in 1.5 mi SE 3.5 mph - N/A   Mostly Cloudy
5:01 AM 59.0 °F 59.0 °F 100% 30.03 in 1.8 mi Calm Calm - N/A   Mostly Cloudy
5:02 AM 59.0 °F 59.0 °F 100% 30.03 in 2.0 mi Calm Calm - N/A   Mostly Cloudy
5:04 AM 59.0 °F 59.0 °F 100% 30.03 in 4.0 mi Calm Calm - N/A   Mostly Cloudy
5:10 AM 59.0 °F 59.0 °F 100% 30.03 in 2.5 mi Calm Calm - N/A   Mostly Cloudy
5:11 AM 59.0 °F 59.0 °F 100% 30.03 in 1.8 mi Calm Calm - N/A   Overcast
5:12 AM 59.0 °F 59.0 °F 100% 30.03 in 1.5 mi Calm Calm - N/A   Overcast
5:13 AM 59.0 °F 59.0 °F 100% 30.04 in 1.2 mi Calm Calm - N/A   Overcast
5:14 AM 59.0 °F 59.0 °F 100% 30.04 in 1.0 mi SSE 3.5 mph - N/A   Overcast
5:15 AM 59.0 °F 59.0 °F 100% 30.04 in 0.8 mi SSE 3.5 mph - N/A   Overcast
5:19 AM 59.0 °F 59.0 °F 100% 30.04 in 0.5 mi SSE 3.5 mph - N/A Fog Fog
5:20 AM 59.0 °F 59.0 °F 100% 30.04 in 0.5 mi Calm Calm - N/A Fog Fog
5:22 AM 59.0 °F 59.0 °F 100% 30.04 in 0.8 mi Calm Calm - N/A   Overcast
5:23 AM 59.0 °F 59.0 °F 100% 30.04 in 0.8 mi Calm Calm - N/A   Overcast
5:25 AM 59.0 °F 59.0 °F 100% 30.04 in 1.0 mi Calm Calm - N/A   Overcast
5:27 AM 59.0 °F 59.0 °F 100% 30.04 in 1.2 mi Calm Calm - N/A   Overcast
5:28 AM 59.0 °F 59.0 °F 100% 30.04 in 1.5 mi Calm Calm - N/A   Overcast
5:29 AM 59.0 °F 59.0 °F 100% 30.04 in 1.8 mi Calm Calm - N/A   Overcast
5:30 AM 59.0 °F 59.0 °F 100% 30.04 in 2.5 mi Calm Calm - N/A   Overcast
5:31 AM 59.0 °F 59.0 °F 100% 30.04 in 3.0 mi Calm Calm - N/A   Overcast
5:55 AM 59.4 °F 59.0 °F 99% 30.05 in 10.0 mi Calm Calm - N/A   Overcast
6:15 AM 59.0 °F 59.0 °F 100% 30.06 in 4.0 mi Calm Calm - N/A   Overcast
6:19 AM 59.0 °F 59.0 °F 100% 30.06 in 2.5 mi Calm Calm - N/A   Overcast
6:22 AM 59.0 °F 59.0 °F 100% 30.06 in 2.0 mi Calm Calm - N/A   Overcast
6:37 AM 59.0 °F 59.0 °F 100% 30.06 in 2.5 mi Calm Calm - N/A   Overcast
6:38 AM 59.0 °F 59.0 °F 100% 30.06 in 3.0 mi Calm Calm - N/A   Overcast
6:55 AM 59.0 °F 58.6 °F 99% 30.07 in 4.0 mi Calm Calm - N/A   Overcast
6:57 AM 59.0 °F 59.0 °F 100% 30.07 in 2.5 mi Calm Calm - N/A   Overcast
6:59 AM 59.0 °F 59.0 °F 100% 30.07 in 1.8 mi Calm Calm - N/A   Overcast
7:00 AM 59.0 °F 59.0 °F 100% 30.07 in 1.5 mi Calm Calm - N/A   Overcast
7:02 AM 59.0 °F 59.0 °F 100% 30.07 in 1.2 mi Calm Calm - N/A   Overcast
7:03 AM 59.0 °F 59.0 °F 100% 30.07 in 1.2 mi Calm Calm - N/A   Overcast
7:04 AM 59.0 °F 59.0 °F 100% 30.08 in 1.0 mi Calm Calm - N/A   Mist
7:07 AM 59.0 °F 59.0 °F 100% 30.08 in 0.8 mi Calm Calm - N/A   Mist
7:10 AM 59.0 °F 59.0 °F 100% 30.08 in 0.8 mi Calm Calm - N/A   Mist
7:12 AM 59.0 °F 59.0 °F 100% 30.08 in 0.8 mi Calm Calm - N/A   Mist
7:18 AM 59.0 °F 59.0 °F 100% 30.08 in 1.2 mi Calm Calm - N/A   Overcast
7:19 AM 59.0 °F 59.0 °F 100% 30.08 in 1.0 mi Calm Calm - N/A   Mist
7:20 AM 59.0 °F 59.0 °F 100% 30.08 in 0.8 mi Calm Calm - N/A   Mist
7:21 AM 59.0 °F 59.0 °F 100% 30.08 in 0.8 mi Calm Calm - N/A   Mist
7:22 AM 59.0 °F 59.0 °F 100% 30.08 in 0.8 mi Calm Calm - N/A   Mist
7:23 AM 59.0 °F 59.0 °F 100% 30.08 in 0.5 mi Calm Calm - N/A Fog Fog
7:25 AM 59.0 °F 59.0 °F 100% 30.08 in 0.5 mi Calm Calm - N/A Fog Fog
7:29 AM 59.0 °F 59.0 °F 100% 30.08 in 0.2 mi Calm Calm - N/A Fog Fog
7:33 AM 59.0 °F 59.0 °F 100% 30.08 in 0.2 mi Calm Calm - N/A Fog Fog
7:38 AM 59.0 °F 59.0 °F 100% 30.08 in 0.1 mi Calm Calm - N/A Fog Fog
7:55 AM 59.4 °F 59.0 °F 99% 30.09 in 0.1 mi Calm Calm - N/A Fog Fog
8:37 AM 59.0 °F 59.0 °F 100% 30.10 in 0.1 mi WNW 2.3 mph - N/A Fog Fog
8:47 AM 60.8 °F 59.0 °F 94% 30.10 in 0.2 mi WNW 1.2 mph - N/A Fog Fog
8:55 AM 60.1 °F 59.9 °F 99% 30.11 in 0.2 mi Calm Calm - N/A Fog Fog
9:09 AM 60.8 °F 60.8 °F 100% 30.11 in 0.2 mi Calm Calm - N/A Fog Fog
9:26 AM 60.8 °F 60.8 °F 100% 30.12 in 0.1 mi Calm Calm - N/A Fog Fog
9:48 AM 60.8 °F 60.8 °F 100% 30.13 in 0.2 mi Calm Calm - N/A Fog Fog
9:55 AM 61.3 °F 61.0 °F 99% 30.13 in 0.2 mi North 2.3 mph - N/A Fog Fog
10:11 AM 62.6 °F 60.8 °F 94% 30.13 in 0.5 mi Calm Calm - N/A Fog Fog
10:20 AM 62.6 °F 62.6 °F 100% 30.13 in 1.0 mi West 1.2 mph - N/A   Mostly Cloudy
10:33 AM 62.6 °F 62.6 °F 100% 30.13 in 2.0 mi Variable 1.2 mph - N/A   Mostly Cloudy
10:42 AM 62.6 °F 62.6 °F 100% 30.14 in 3.0 mi SW 2.3 mph - N/A   Mostly Cloudy
10:52 AM 62.6 °F 62.6 °F 100% 30.14 in 5.0 mi Calm Calm - N/A   Mostly Cloudy
10:55 AM 63.1 °F 63.0 °F 99% 30.14 in 7.0 mi South 1.2 mph - N/A   Mostly Cloudy
11:08 AM 64.4 °F 64.4 °F 100% 30.14 in 10.0 mi Calm Calm - N/A   Mostly Cloudy
11:22 AM 66.2 °F 66.2 °F 100% 30.13 in 10.0 mi NE 2.3 mph - N/A   Mostly Cloudy
11:31 AM 66.2 °F 66.2 °F 100% 30.14 in 10.0 mi WNW 3.5 mph - N/A   Scattered Clouds
11:55 AM 69.6 °F 66.7 °F 91% 30.14 in 10.0 mi Variable 4.6 mph - N/A   Partly Cloudy
12:55 PM 71.2 °F 62.1 °F 73% 30.13 in 10.0 mi NW 3.5 mph - N/A   Mostly Cloudy
12:57 PM 71.6 °F 62.6 °F 73% 30.13 in 10.0 mi Variable 3.5 mph - N/A   Mostly Cloudy
12:59 PM 71.6 °F 62.6 °F 73% 30.13 in 10.0 mi Calm Calm - N/A   Mostly Cloudy
1:55 PM 71.8 °F 61.0 °F 69% 30.13 in 10.0 mi Calm Calm - N/A   Partly Cloudy
2:55 PM 74.5 °F 60.4 °F 61% 30.10 in 10.0 mi Calm Calm - N/A   Clear
3:55 PM 75.6 °F 61.5 °F 62% 30.10 in 10.0 mi Calm Calm - N/A   Partly Cloudy
4:55 PM 74.3 °F 60.6 °F 62% 30.12 in 10.0 mi Calm Calm - N/A   Partly Cloudy
5:55 PM 73.9 °F 60.3 °F 62% 30.11 in 10.0 mi Calm Calm - N/A   Clear
6:55 PM 70.9 °F 63.3 °F 77% 30.12 in 10.0 mi Calm Calm - N/A   Clear
7:55 PM 65.7 °F 63.0 °F 91% 30.13 in 10.0 mi Calm Calm - N/A   Clear
8:55 PM 61.9 °F 61.7 °F 99% 30.15 in 8.0 mi Calm Calm - N/A   Clear
9:02 PM 62.6 °F 60.8 °F 94% 30.15 in 2.5 mi Calm Calm - N/A   Clear
9:04 PM 62.6 °F 60.8 °F 94% 30.15 in 1.5 mi Calm Calm - N/A   Clear
9:06 PM 60.8 °F 60.8 °F 100% 30.14 in 6.0 mi Calm Calm - N/A   Clear
9:55 PM 60.8 °F 60.8 °F 100% 30.18 in 6.0 mi Calm Calm - N/A   Clear
10:49 PM 60.8 °F 60.8 °F 100% 30.19 in 6.0 mi Calm Calm - N/A   Scattered Clouds
10:55 PM 60.3 °F 60.1 °F 99% 30.19 in 9.0 mi Calm Calm - N/A   Scattered Clouds
11:55 PM 60.4 °F 60.1 °F 99% 30.19 in 9.0 mi Calm Calm - N/A   Clear